This is the latest recevied weather packets stored in our database for station/object KD2RHT-13. If no packets are shown the sender has not sent any weather packets the latest 10 day(s).
| Time | Temp. | Humidity | Pressure | Rain* | Wind** | Luminosity | Snow |
|---|---|---|---|---|---|---|---|
| 1777994136 | 23.33° C | 60% | 1005.6 hPa | 0 mm | - | 310 W/m² | - |
| 1777993834 | 23.33° C | 59% | 1005.6 hPa | 0 mm | - | 482 W/m² | - |
| 1777993531 | 23.33° C | 58% | 1005.6 hPa | 0 mm | - | 412 W/m² | - |
| 1777993227 | 23.33° C | 60% | 1005.6 hPa | 0 mm | - | 501 W/m² | - |
| 1777992923 | 22.78° C | 60% | 1005.6 hPa | 0 mm | - | 384 W/m² | - |
| 1777992622 | 23.33° C | 59% | 1005.6 hPa | 0 mm | - | 261 W/m² | - |
| 1777992319 | 23.89° C | 59% | 1005.3 hPa | 0 mm | - | 406 W/m² | - |
| 1777992016 | 23.89° C | 60% | 1005.3 hPa | 0 mm | - | 471 W/m² | - |
| 1777991714 | 23.33° C | 58% | 1005.3 hPa | 0 mm | - | 607 W/m² | - |
| 1777991411 | 23.33° C | 59% | 1005 hPa | 0 mm | - | 656 W/m² | - |
| 1777991108 | 23.33° C | 59% | 1005 hPa | 0 mm | - | 533 W/m² | - |
| 1777990805 | 23.33° C | 61% | 1005 hPa | 0 mm | - | 561 W/m² | - |
| 1777990502 | 23.33° C | 60% | 1005 hPa | 0 mm | - | 485 W/m² | - |
| 1777989895 | 22.78° C | 60% | 1005.6 hPa | 0 mm | - | 603 W/m² | - |
| 1777989592 | 22.78° C | 60% | 1005.3 hPa | 0 mm | - | 536 W/m² | - |
| 1777989289 | 22.78° C | 61% | 1005.6 hPa | 0 mm | - | 570 W/m² | - |
| 1777988985 | 22.78° C | 61% | 1005.3 hPa | 0 mm | - | 551 W/m² | - |
| 1777988682 | 22.22° C | 63% | 1005.3 hPa | 0 mm | - | 518 W/m² | - |
| 1777988378 | 21.67° C | 62% | 1005.3 hPa | 0 mm | - | 495 W/m² | - |
| 1777988076 | 21.67° C | 63% | 1005.3 hPa | 0 mm | - | 218 W/m² | - |
| 1777987772 | 21.67° C | 63% | 1005.3 hPa | 0 mm | - | 186 W/m² | - |
| 1777987468 | 21.67° C | 62% | 1005.3 hPa | 0 mm | - | 461 W/m² | - |
| 1777987166 | 21.67° C | 62% | 1005 hPa | 0 mm | - | 284 W/m² | - |
| 1777986862 | 21.67° C | 62% | 1005.3 hPa | 0 mm | - | 318 W/m² | - |
| 1777986561 | 21.67° C | 63% | 1005.3 hPa | 0 mm | - | 238 W/m² | - |
* Rain latest hour (hover to see other rain measurements)
** Current wind speed in m/s (hover to see current wind gust speed)